Flag for U.S.A. Weather past 2 weeks in Victorville, California, U.S.A.

Now
84 °F

Scattered clouds.


Feels Like: 82 °F
Forecast: 58 / 85 °F
Wind: 10 mph from South

Location: George Air Force Base / Victorvi

Current Time: Aug 20, 2014 at 1:41:23 PM

Latest Report: Aug 20, 2014 at 1:15 PM


Visibility: 10 mi

Pressure: 29.97 "Hg

Humidity: 27%

Dew point: 46 °F

Location of VictorvilleLocation

Historic Weather in Victorville — Graph

°F

Victorville temperature yesterday

Maximum temperature yesterday: 91 °F (at 1:15 PM)
Minimum temperature yesterday: 64 °F (at 11:55 PM)
Average temperature yesterday: 77 °F

Past Weeks' High & Low Weather Summary

 TemperatureHumidityPressure
High100 °F (Aug 17, 1:15 PM)73% (Aug 20, 3:15 AM)30.12 "Hg (Aug 20, 3:15 AM)
Low59 °F (Aug 15, 5:55 AM)6% (Aug 6, 2:15 PM)29.82 "Hg (Aug 18, 4:15 PM)
Average81 °F27%30.00 "Hg
* Reported Aug 5 12:15 PM — Aug 20 12:35 PM, Victorville, Weather by CustomWeather, © 2014

Note: Actual official high and low records may vary slightly from our data, if they occured in-between our weather recording intervals... More about our weather records

Advertising

Victorville weather history for previous 24 hours

 ConditionsComfort  
Time TempWeatherWind HumidityBarometerVisibility
12:35 PM
Aug 20
84 °FScattered clouds.12 mph25%29.97 "Hg10 mi
12:15 PM84 °FScattered clouds.14 mph27%29.97 "Hg10 mi
11:55 AM82 °FScattered clouds.9 mph28%29.98 "Hg10 mi
11:35 AM84 °FSunny.10 mph25%29.98 "Hg10 mi
11:15 AM81 °FScattered clouds.No wind26%29.98 "Hg10 mi
10:55 AM79 °FPartly sunny.3 mph26%29.99 "Hg10 mi
10:35 AM77 °FScattered clouds.6 mph26%29.99 "Hg10 mi
10:15 AM79 °FSunny.7 mph23%29.99 "Hg10 mi
9:55 AM75 °FSunny.6 mph27%29.99 "Hg10 mi
9:35 AM75 °FSunny.6 mph25%29.98 "Hg10 mi
9:15 AM73 °FScattered clouds.10 mph27%29.98 "Hg10 mi
8:55 AM72 °FSunny.9 mph31%29.98 "Hg10 mi
8:35 AM70 °FSunny.8 mph33%29.97 "Hg10 mi
8:15 AM68 °FScattered clouds.10 mph35%29.97 "Hg10 mi
7:55 AM64 °FScattered clouds.8 mph46%29.96 "Hg10 mi
7:35 AM63 °FSunny.6 mph49%29.96 "Hg10 mi
7:15 AM63 °FSunny.9 mph52%29.96 "Hg10 mi
6:55 AM63 °FClear.8 mph52%29.96 "Hg10 mi
6:35 AM63 °FClear.13 mph52%29.95 "Hg10 mi
6:15 AM63 °FClear.8 mph56%29.94 "Hg10 mi
5:55 AM63 °FClear.9 mph59%29.94 "Hg10 mi
5:35 AM63 °FClear.10 mph68%29.93 "Hg10 mi
5:15 AM63 °FClear.13 mph68%29.92 "Hg10 mi
4:55 AM63 °FClear.13 mph68%29.92 "Hg10 mi
4:15 AM63 °FClear.10 mph73%29.93 "Hg10 mi
3:55 AM63 °FClear.7 mph68%29.93 "Hg10 mi
3:35 AM61 °FClear.6 mph72%29.93 "Hg10 mi
3:15 AM63 °FClear.6 mph73%29.93 "Hg10 mi
2:55 AM61 °FClear.7 mph72%29.92 "Hg10 mi
2:35 AM63 °FClear.5 mph68%29.92 "Hg10 mi
2:15 AM64 °FClear.9 mph64%29.92 "Hg10 mi
1:55 AM64 °FClear.10 mph64%29.92 "Hg10 mi
1:15 AM64 °FClear.6 mph56%29.93 "Hg10 mi
12:55 AM64 °FClear.8 mph56%29.93 "Hg10 mi
12:15 AM64 °FClear.5 mph49%29.93 "Hg10 mi
11:55 PM
Aug 19
64 °FClear.5 mph52%29.92 "Hg10 mi
11:35 PM66 °FClear.3 mph49%29.92 "Hg10 mi
11:15 PM68 °FClear.5 mph43%29.92 "Hg10 mi
10:55 PM70 °FClear.8 mph40%29.92 "Hg10 mi
10:35 PM70 °FClear.6 mph40%29.92 "Hg10 mi
10:15 PM72 °FClear.9 mph31%29.92 "Hg10 mi
9:55 PM72 °FClear.5 mph29%29.91 "Hg10 mi
9:35 PM72 °FClear.7 mph29%29.91 "Hg10 mi
9:15 PM73 °FClear.7 mph25%29.90 "Hg10 mi
8:55 PM73 °FClear.9 mph25%29.89 "Hg10 mi
8:35 PM73 °FClear.16 mph31%29.87 "Hg10 mi
8:15 PM75 °FSunny.22 mph31%29.86 "Hg10 mi
7:55 PM75 °FScattered clouds.21 mph34%29.86 "Hg10 mi
7:35 PM75 °FScattered clouds.20 mph34%29.85 "Hg10 mi
7:15 PM79 °FSunny.18 mph30%29.85 "Hg10 mi
6:55 PM79 °FSunny.24 mph30%29.83 "Hg7 mi
6:35 PM81 °FScattered clouds.25 mph26%29.83 "Hg7 mi
6:15 PM82 °FScattered clouds.23 mph17%29.83 "Hg7 mi
5:55 PM82 °FScattered clouds.23 mph12%29.82 "Hg7 mi
5:35 PM84 °FScattered clouds.20 mph12%29.82 "Hg10 mi
5:15 PM86 °FScattered clouds.24 mph13%29.83 "Hg10 mi
4:55 PM86 °FScattered clouds.24 mph13%29.83 "Hg10 mi
4:35 PM88 °FScattered clouds.22 mph13%29.83 "Hg10 mi
4:15 PM90 °FPartly sunny.17 mph12%29.83 "Hg10 mi
3:55 PM88 °FScattered clouds.17 mph13%29.83 "Hg10 mi
3:35 PM90 °FScattered clouds.18 mph13%29.84 "Hg10 mi
3:15 PM90 °FScattered clouds.17 mph13%29.84 "Hg10 mi
2:55 PM91 °FScattered clouds.18 mph11%29.85 "Hg10 mi
2:35 PM90 °FScattered clouds.8 mph12%29.86 "Hg10 mi
1:55 PM91 °FScattered clouds.12 mph11%29.87 "Hg10 mi
1:35 PM90 °FScattered clouds.12 mph11%29.87 "Hg10 mi
1:15 PM91 °FScattered clouds.14 mph11%29.88 "Hg10 mi
Weather by CustomWeather, © 2014

See weather overviewHow to use our weather pages